Location: Grand Lay
(47.3253°N, 0.9468°E)
Time: 18:40:47
(UTC+00:00)

Gbstr 26 Del rocket - Pass Details

Date: 11 April 2026
Orbit: 490 x 1216 km, 51.8° (Epoch: 13 May)

Event Time Altitude Azimuth Distance (km) Brightness Sun altitude
Exits shadow 02:09:30 32° 61° (ENE) 863 4.3 -27.2°
Drops below altitude 10° 02:11:36 10° 64° (ENE) 1,682 6.1 -26.9°
Sets 02:13:45 0° 66° (ENE) 2,577 7.2 -26.7°
